TimeAKST,TemperatureF,Dew PointF,Humidity,Sea Level PressureIn,VisibilityMPH,Wind Direction,Wind SpeedMPH,Gust SpeedMPH,PrecipitationIn,Events,Conditions,WindDirDegrees,DateUTC
12:53 AM,-41.1,-9999,N/A,29.59,10.0,Calm,Calm,-,N/A,,Clear,0,2014-01-13 09:53:00
1:53 AM,-44.0,-9999,N/A,29.62,10.0,Calm,Calm,-,N/A,Fog,Patches of Fog,0,2014-01-13 10:53:00
2:05 AM,-43.6,-9999,N/A,29.49,10.0,Calm,Calm,-,N/A,Fog,Patches of Fog,0,2014-01-13 11:05:00
2:53 AM,-44.0,-9999,N/A,29.63,10.0,Calm,Calm,-,N/A,Fog,Patches of Fog,0,2014-01-13 11:53:00
3:53 AM,-44.0,-9999,N/A,29.65,10.0,Calm,Calm,-,N/A,Fog,Patches of Fog,0,2014-01-13 12:53:00
4:53 AM,-45.0,-9999,N/A,29.65,10.0,NNW,3.5,-,N/A,Fog,Patches of Fog,340,2014-01-13 13:53:00
5:53 AM,-41.1,-9999,N/A,29.65,10.0,Calm,Calm,-,N/A,Fog,Patches of Fog,0,2014-01-13 14:53:00
6:53 AM,-36.9,-9999,N/A,29.65,10.0,Calm,Calm,-,N/A,,Partly Cloudy,0,2014-01-13 15:53:00
7:53 AM,-36.9,-9999,N/A,29.66,10.0,Calm,Calm,-,N/A,,Partly Cloudy,0,2014-01-13 16:53:00
8:53 AM,-33.0,-9999,N/A,29.66,10.0,NNW,4.6,-,N/A,,Partly Cloudy,330,2014-01-13 17:53:00
9:53 AM,-29.9,-9999,N/A,29.68,10.0,NNW,4.6,-,N/A,,Partly Cloudy,340,2014-01-13 18:53:00
10:53 AM,-31.0,-9999,N/A,29.68,10.0,Calm,Calm,-,N/A,,Partly Cloudy,0,2014-01-13 19:53:00
11:53 AM,-31.0,-9999,N/A,29.68,10.0,Calm,Calm,-,N/A,,Partly Cloudy,0,2014-01-13 20:53:00
12:53 PM,-33.0,-9999,N/A,29.68,10.0,NNW,4.6,-,N/A,,Partly Cloudy,330,2014-01-13 21:53:00
1:53 PM,-32.1,-9999,N/A,29.69,10.0,NNW,3.5,-,N/A,,Partly Cloudy,340,2014-01-13 22:53:00
2:53 PM,-33.0,-9999,N/A,29.69,10.0,Calm,Calm,-,N/A,,Scattered Clouds,0,2014-01-13 23:53:00
3:53 PM,-29.9,-9999,N/A,29.67,10.0,Calm,Calm,-,N/A,,Mostly Cloudy,0,2014-01-14 00:53:00
4:53 PM,-23.1,-29.9,70,29.65,10.0,NNW,4.6,-,N/A,,Mostly Cloudy,340,2014-01-14 01:53:00
5:53 PM,-23.1,-29.0,74,29.63,10.0,NNW,4.6,-,N/A,,Mostly Cloudy,330,2014-01-14 02:53:00
6:53 PM,-23.1,-29.0,74,29.61,10.0,NNW,3.5,-,N/A,,Mostly Cloudy,340,2014-01-14 03:53:00
7:53 PM,-24.0,-31.0,70,29.62,10.0,NNW,3.5,-,N/A,,Mostly Cloudy,330,2014-01-14 04:53:00
8:53 PM,-23.1,-29.0,74,29.59,10.0,NNW,4.6,-,N/A,,Mostly Cloudy,330,2014-01-14 05:53:00
9:53 PM,-17.0,-23.1,74,29.55,10.0,NNW,8.1,-,N/A,,Mostly Cloudy,340,2014-01-14 06:53:00
10:53 PM,-16.1,-22.0,74,29.53,10.0,North,5.8,-,N/A,Snow,Light Snow,350,2014-01-14 07:53:00
11:53 PM,-14.1,-20.0,75,29.50,5.0,NNW,6.9,-,N/A,Snow,Light Snow,340,2014-01-14 08:53:00